SCP
0 0 1 1 1 1 1 1 1 1 1 1 1 1 1 1 1 0 0 0 0 0 0 0 0 0 0 0 0 0 0 0 0 0 0 0 0 0 0 0 0 0 0
0 0 1 1 1 1 1 1 1 1 1 1 1 1 1 1 1 0 0 0 0 0 0 0 0 0 0 0 0 0 0 0 0 0 0 0 0 0 0 0 0 0 0
0 0 0 1 1 1 1 1 1 1 1 1 1 1 1 1 1 0 0 0 0 0 0 0 0 0 0 0 0 0 0 0 0 0 0 0 0 0 0 0 0 0 0
0 0 0 0 1 1 1 1 1 1 1 1 1 1 1 1 0 0 0 0 0 0 0 0 0 0 0 0 0 0 0 0 0 0 0 0 0 0 0 0 0 0 0
0 0 0 1 1 1 1 1 1 1 1 1 1 1 1 0 0 0 0 0 0 0 0 0 0 0 0 0 0 0 0 0 0 0 0 0 0 0 0 0 0 0 0
0 0 0 1 1 1 1 1 1 1 1 1 1 1 1 0 0 0 0 0 0 0 0 0 0 0 0 0 0 0 0 0 0 0 0 0 0 0 0 0 0 0 0
0 0 0 1 1 1 1 1 1 1 1 1 1 1 0 0 0 0 0 0 0 0 0 0 0 0 0 0 0 0 0 0 0 0 0 0 0 0 0 0 0 0 0
0 0 1 1 1 1 1 1 1 1 1 1 1 1 0 0 0 0 0 0 0 0 0 0 0 0 0 0 0 0 0 0 0 0 0 0 0 0 0 0 0 0 0
1 1 1 1 1 1 1 1 1 1 1 1 1 1 0 0 0 0 0 0 0 0 0 0 0 0 0 0 0 0 0 0 0 0 0 0 0 0 0 0 0 0 1
1 1 1 1 1 1 1 1 1 1 1 1 1 1 0 0 0 0 0 0 0 0 0 0 0 0 0 0 0 0 0 0 0 0 0 0 0 0 0 0 0 0 1
1 1 1 1 1 1 1 1 1 1 1 1 1 1 1 0 0 0 0 0 0 0 0 0 0 0 0 0 0 0 0 0 0 0 0 0 0 1 0 0 0 0 1
1 1 1 1 1 1 1 1 1 1 1 1 1 1 1 1 1 1 0 0 0 0 0 0 0 0 1 1 1 1 1 1 1 0 0 0 1 1 1 0 0 1 1
1 1 1 1 1 1 2 2 2 2 2 1 1 1 1 1 1 1 1 1 1 1 1 1 1 1 1 1 1 1 1 1 1 1 1 1 1 1 1 1 1 1 1
1 1 1 1 1 2 2 2 2 2 2 2 2 2 1 1 1 1 1 1 1 1 1 1 1 1 1 1 1 1 1 1 1 1 1 1 1 1 1 1 1 1 1
1 1 1 1 2 2 2 2 2 2 2 2 2 2 2 2 2 1 1 1 1 1 2 2 3 3 3 2 2 2 2 2 1 1 1 1 1 1 1 1 1 1 1
1 1 1 1 2 2 2 2 2 2 2 2 2 2 2 2 2 2 2 2 2 2 2 2 4 5 4 3 3 2 2 2 1 1 1 1 1 1 1 1 1 1 1
2 2 2 2 2 2 2 2 2 2 2 2 2 2 2 2 2 2 2 2 2 2 2 3 3 4 4 3 3 3 2 2 2 1 1 1 1 1 1 1 1 1 1
3 3 2 2 2 2 2 2 2 2 2 2 2 2 2 2 2 2 2 2 2 3 3 7 9 7 3 3 4 3 3 3 2 2 1 2 2 1 1 1 1 1 1
3 3 3 3 2 2 2 2 3 3 3 3 3 2 2 2 2 2 2 2 3 3 3 10 16 9 3 3 3 3 3 4 3 2 1 1 2 1 1 1 1 1 1
3 3 3 3 3 3 3 3 3 3 3 3 3 3 2 2 2 3 3 3 3 3 3 7 10 7 3 3 3 2 3 3 3 2 2 1 1 1 1 1 1 1 1
3 3 3 3 3 3 3 3 3 3 3 3 3 2 2 2 2 3 3 3 3 3 3 3 4 4 3 3 3 3 3 2 2 2 2 2 2 1 1 1 1 2 2
3 3 2 3 3 3 3 3 3 3 2 2 2 2 2 2 2 2 3 3 3 3 3 3 3 3 4 4 4 3 3 2 2 2 2 2 2 2 2 1 1 2 2
2 2 2 2 2 2 2 2 2 2 2 2 1 1 1 1 1 2 2 3 3 3 3 2 3 3 4 4 4 4 3 2 1 1 1 1 2 2 2 2 1 1 2
1 1 1 2 2 2 2 2 2 1 1 1 1 1 1 1 1 1 2 2 2 2 2 2 2 3 3 3 4 3 3 2 1 1 1 1 1 1 1 1 1 1 1
1 1 1 2 2 2 2 2 1 1 1 1 1 1 0 1 1 1 1 1 1 2 2 2 2 2 2 3 3 3 2 2 2 1 1 1 1 1 1 1 1 1 1
0 1 1 2 2 2 2 1 1 1 1 1 1 0 0 0 1 1 1 1 1 1 1 1 2 2 2 2 2 2 2 2 2 2 1 1 1 1 1 1 1 1 1
Wind_Speed
7 10 18 18 17 16 15 15 15 16 16 16 16 15 14 14 13 12 11 10 9 8 8 7 7 7 8 8 8 9 10 10 10 10 10 11 10 10 10 11 10 9 12
12 12 19 19 18 17 16 15 15 15 15 15 15 14 13 13 12 11 10 9 9 8 8 7 7 7 7 7 7 8 8 8 8 9 9 8 8 8 9 10 10 7 11
13 12 16 18 18 17 16 15 15 14 14 14 13 13 12 11 11 10 9 9 8 8 8 7 7 7 6 6 7 7 7 7 7 7 7 4 4 6 7 8 10 10 11
13 10 11 18 18 17 16 15 14 14 14 13 13 12 11 10 10 9 8 8 7 7 7 7 7 7 6 6 6 6 6 5 5 5 3 2 2 4 5 7 9 10 11
11 8 12 19 17 17 16 15 14 14 13 13 12 11 10 10 9 8 8 7 7 7 6 6 6 6 6 6 6 5 5 5 5 4 2 2 2 4 6 8 9 10 11
10 8 11 19 17 17 16 15 14 14 13 12 11 11 10 9 9 8 8 8 7 7 7 7 7 7 7 7 7 6 6 6 5 3 3 3 3 6 8 10 11 12 12
10 8 9 19 18 17 16 15 15 14 13 12 11 10 10 9 9 9 9 9 9 8 8 8 8 8 8 8 8 8 8 8 5 4 4 5 6 9 10 12 14 14 14
12 9 8 18 18 17 16 15 14 14 13 12 11 11 10 10 10 10 10 10 10 10 10 10 10 9 9 9 9 9 9 9 7 6 6 6 8 11 12 13 15 16 16
9 8 7 8 12 16 16 15 14 13 12 12 11 11 11 11 11 11 11 11 11 11 11 11 11 11 11 10 10 10 11 11 8 5 6 5 9 12 13 13 14 17 17
8 7 6 6 6 7 8 14 14 13 12 12 11 11 11 11 11 12 10 11 12 12 12 12 12 12 11 11 11 12 12 11 8 7 6 7 12 13 14 14 14 16 17
9 7 6 6 6 6 5 9 11 12 12 11 10 12 11 5 5 6 9 12 14 14 14 14 14 13 12 11 13 13 12 6 8 7 6 10 14 15 15 15 15 15 17
13 12 8 8 7 6 6 5 4 4 5 5 4 5 4 3 4 7 8 14 15 15 15 15 15 13 11 6 9 11 6 8 8 7 7 14 15 16 16 16 16 15 16
11 11 10 8 7 7 5 3 2 2 3 4 5 5 4 3 3 5 4 7 8 10 8 9 9 6 7 6 6 6 8 7 6 6 8 14 15 16 16 16 15 16 16
7 9 7 8 8 8 5 3 3 3 3 4 5 6 4 4 5 5 5 5 5 5 6 6 5 7 8 9 9 9 9 7 6 6 8 15 15 16 17 16 15 15 15
7 8 7 7 8 7 6 4 4 4 5 5 4 5 6 6 6 6 6 6 7 6 7 7 7 8 8 9 9 9 10 10 9 8 6 14 15 15 16 17 16 16 15
8 8 7 8 7 6 6 5 5 4 4 5 5 7 8 7 7 7 7 7 7 7 7 7 8 7 6 6 8 8 9 8 8 9 8 10 14 15 15 17 17 17 16
7 6 7 7 6 7 7 6 5 4 4 5 6 7 8 8 9 8 7 7 7 6 6 5 6 5 5 6 7 8 7 8 8 9 8 7 8 12 15 16 16 16 17
6 6 7 7 7 7 6 5 4 4 4 5 6 6 8 10 10 8 8 8 7 6 5 5 4 4 5 5 5 6 5 5 8 8 8 8 7 7 10 14 15 15 17
7 7 6 6 6 7 6 5 5 4 5 5 5 6 7 8 9 8 8 8 7 6 6 6 4 4 5 6 6 6 6 6 7 8 9 9 9 8 8 10 14 15 18
7 7 7 6 6 5 4 3 3 4 4 4 4 5 6 5 7 7 6 8 8 7 7 6 7 6 6 5 7 7 6 6 6 8 10 9 8 9 9 9 8 10 15
6 7 7 6 5 3 2 2 2 3 2 2 2 3 3 4 4 5 5 6 6 6 8 8 7 7 7 5 4 5 5 7 9 8 7 7 8 8 7 7 6 7 7
6 6 5 5 4 4 2 2 1 1 1 2 2 3 4 4 4 4 4 5 5 5 7 7 6 4 5 6 5 3 3 3 4 6 5 6 7 5 6 6 6 6 6
5 6 5 5 4 3 2 1 1 2 2 2 3 3 4 5 6 5 5 5 5 5 6 7 7 8 7 6 6 5 4 5 2 2 4 4 4 4 4 4 5 4 4
5 4 3 3 2 2 1 1 1 1 2 3 2 3 5 6 6 6 6 6 6 5 6 6 6 7 7 6 5 6 5 3 3 2 2 2 4 4 4 4 3 3 2
3 3 3 2 2 2 2 2 2 2 2 2 3 5 5 5 6 7 7 6 6 5 6 7 6 7 6 6 5 4 5 4 5 4 3 2 2 2 2 3 1 0 1
2 3 3 4 3 2 2 2 2 3 3 3 4 4 5 4 5 6 7 7 7 6 7 7 7 8 7 8 6 5 5 4 5 5 6 3 2 2 1 1 1 1 1
Wind_Direction
166 163 164 159 155 151 146 142 139 136 136 137 139 140 139 139 138 137 136 135 134 132 128 123 118 115 117 117 117 117 119 121 123 126 126 126 125 125 127 125 125 125 127
153 160 163 160 157 154 151 148 145 143 144 145 145 145 145 144 143 142 141 141 142 140 136 133 130 126 125 126 125 124 124 127 131 135 135 132 132 134 139 137 137 141 137
147 158 162 161 158 156 155 154 152 151 152 152 152 152 151 150 150 149 150 150 150 149 147 146 144 140 138 137 135 135 134 135 139 144 136 124 136 145 154 154 153 152 149
147 154 159 162 160 160 160 161 160 160 160 160 160 159 158 158 159 160 161 162 163 162 161 162 161 158 157 156 155 154 153 154 159 158 139 161 180 170 173 171 168 167 163
146 151 165 163 164 165 166 167 168 168 168 168 169 169 170 171 174 176 178 180 183 183 182 183 182 180 179 181 182 184 186 188 195 184 173 204 230 224 201 190 184 184 179
148 153 170 166 169 170 172 173 174 175 176 178 179 182 185 188 192 196 199 203 207 208 207 207 207 205 205 206 207 210 213 217 220 216 219 231 234 240 229 212 202 199 195
153 158 173 171 174 176 178 179 180 181 183 186 189 193 198 203 209 213 216 220 223 225 225 225 225 226 226 227 229 230 232 236 229 220 232 240 242 244 245 233 218 209 206
158 160 172 177 180 182 184 186 187 188 191 194 198 203 210 216 222 227 229 230 232 233 235 237 237 239 240 241 243 245 247 250 252 237 234 239 246 249 252 248 229 216 212
155 158 171 177 184 188 191 193 195 197 200 203 208 214 220 226 231 237 238 240 240 241 243 246 248 249 250 249 249 252 254 255 255 249 250 244 249 254 257 257 239 221 217
155 164 169 170 174 181 192 201 202 205 209 213 218 224 229 235 240 244 244 246 251 251 252 253 255 257 257 256 255 258 260 263 260 256 254 253 255 257 259 260 251 229 221
173 177 175 172 172 173 183 204 206 212 215 218 225 231 234 236 246 256 256 254 256 259 260 261 261 261 261 260 259 261 264 257 259 259 257 258 260 260 259 258 255 241 229
186 188 186 182 177 174 193 200 203 209 213 216 214 229 234 227 233 248 256 260 262 264 264 263 261 261 261 256 258 261 257 257 259 261 260 261 263 263 262 257 253 248 239
188 188 192 191 187 188 197 195 202 208 214 220 221 221 227 236 241 249 251 261 264 268 268 267 265 254 246 243 246 245 248 254 257 260 261 264 264 266 265 260 255 252 246
180 192 190 192 194 200 201 207 211 216 222 228 230 226 225 237 242 244 246 247 245 248 249 252 252 249 247 244 244 246 247 247 250 252 257 263 263 265 268 267 263 259 254
182 189 189 189 198 202 206 217 220 225 231 236 236 232 227 236 245 246 249 246 245 242 240 244 246 248 250 250 247 245 249 248 249 249 255 262 264 264 267 270 269 266 259
187 186 183 189 195 196 209 218 230 228 232 236 239 237 229 233 241 243 246 245 245 242 240 239 244 248 252 254 255 251 249 250 251 251 251 260 263 264 265 268 269 267 260
181 177 180 190 192 201 215 222 231 237 239 243 245 242 236 233 238 241 247 247 247 245 244 245 252 253 256 255 257 258 256 252 253 255 255 254 259 262 260 260 262 262 260
165 170 183 195 196 204 212 224 234 243 242 246 249 250 245 240 237 238 243 248 244 238 235 235 240 251 256 255 257 261 257 254 255 254 255 253 252 258 259 258 258 259 259
157 163 173 185 194 201 207 221 232 235 240 244 248 249 250 249 243 236 241 245 239 234 231 229 220 215 238 245 248 250 247 248 253 258 257 256 253 253 257 259 259 258 259
144 156 164 177 190 191 202 226 243 250 250 249 252 257 259 257 255 245 242 244 238 232 229 218 215 212 219 229 249 253 241 244 248 249 255 258 256 258 260 262 261 259 255
146 156 167 177 189 174 181 210 232 249 257 265 269 279 287 283 279 268 258 250 240 236 233 223 217 220 223 212 230 255 254 244 245 245 248 252 255 259 263 262 258 254 254
161 169 171 182 184 187 189 198 215 255 282 280 300 314 314 314 306 292 271 263 254 249 245 232 223 221 226 200 205 222 260 269 247 244 244 245 250 255 262 267 265 257 253
178 182 182 187 189 198 193 99 29 10 346 331 324 316 316 316 310 299 288 277 266 252 250 245 230 224 230 219 203 200 213 233 255 265 247 244 245 251 261 272 270 268 262
206 195 190 187 191 200 171 164 181 228 271 272 290 296 305 307 306 302 294 284 275 266 262 257 241 231 229 231 217 216 218 194 203 253 264 250 249 256 264 268 270 267 274
215 201 199 188 201 205 191 190 201 241 254 284 298 301 305 306 305 305 299 290 281 273 267 261 252 236 229 229 216 202 213 216 216 219 247 257 270 265 274 275 258 288 9
212 198 192 192 213 218 210 203 207 236 264 292 303 307 309 306 305 308 307 298 288 278 271 263 253 242 233 230 223 206 192 190 197 206 223 230 245 264 299 340 35 38 41